UnixTime_GMT,NO3_uM_1m,NO3_uM_94m
1520010000000,,
1520035200000,-5.34,8.24
1520038800000,-5.36,7.64
1520042400000,-5.16,7.15
1520046000000,-5.66,8.54
1520049600000,-4.76,7.67
1520053200000,-5.77,6.55
1520056800000,-5.03,5.52
1520060400000,-4.60,6.70
1520064000000,-4.87,4.99
1520067600000,-5.00,4.53
1520071200000,-5.53,3.68
1520074800000,-5.16,5.89
1520078400000,-5.42,7.34
1520082000000,-5.13,6.29
1520085600000,-5.35,5.88
1520089200000,-4.37,6.71
1520092800000,-5.49,6.48
1520096400000,-4.74,5.88
1520100000000,-5.16,6.76
1520103600000,-5.12,6.14
1520107200000,-5.80,5.25
1520110800000,-5.28,5.49
1520114400000,-4.96,5.17
1520118000000,-5.07,3.79
1520121600000,-5.38,6.45
1520125200000,-4.72,7.33
1520128800000,-4.93,6.51
1520132400000,-5.47,6.55
1520136000000,-4.87,5.72
1520139600000,-4.83,5.84
1520143200000,-5.30,5.59
1520146800000,-6.10,5.75
1520150400000,-4.88,5.64
1520154000000,-5.40,6.55
1520157600000,-4.57,6.72
1520161200000,-5.02,5.62
1520164800000,-5.51,5.46
1520168400000,-4.49,6.38
1520172000000,-4.81,5.60
1520175600000,-5.15,6.98
1520179200000,-5.29,6.06
1520182800000,-4.88,6.09
1520186400000,-4.83,6.24
1520190000000,-4.34,6.20
1520193600000,-4.47,6.80
1520197200000,-5.40,5.84
1520200800000,-4.62,5.57
1520204400000,-4.84,5.60
1520208000000,-5.14,6.00
1520211600000,-4.27,5.82
1520215200000,-4.82,6.09
1520218800000,-4.53,7.25
1520222400000,-5.22,8.07
1520226000000,-4.85,7.84
1520229600000,-5.38,6.71
1520233200000,-4.72,5.57
1520236800000,-4.89,5.89
1520240400000,-5.26,5.52
1520244000000,-5.39,6.61
1520247600000,-4.73,6.19
1520251200000,-5.28,4.34
1520254800000,-5.67,6.59
1520258400000,-4.78,5.29
1520262000000,-4.89,6.28
1520265600000,-4.83,6.84
1520269200000,-5.17,7.66
1520272800000,-4.53,6.90
1520276400000,-5.38,7.17
1520280000000,-4.56,7.35
1520283600000,-5.22,5.52
1520287200000,-4.95,5.78
1520290800000,-5.57,6.72
1520294400000,-4.58,7.09
1520298000000,-5.28,5.56
1520301600000,-4.59,6.74
1520305200000,-5.07,7.18
1520308800000,-4.44,7.38
1520312400000,-5.05,8.26
1520316000000,-5.25,7.23
1520319600000,-5.38,6.18
1520323200000,-4.97,6.78
1520326800000,-4.88,5.57
1520330400000,-5.49,5.67
1520334000000,-5.20,6.68
1520337600000,-5.19,6.81
1520341200000,-5.40,7.59
1520344800000,-5.19,5.97
1520348400000,-5.08,8.94
1520352000000,-4.46,7.92
1520355600000,-5.61,7.88
1520359200000,-5.33,7.50
1520362800000,-5.54,7.23
1520366400000,-5.44,5.39
1520370000000,-5.50,5.87
1520373600000,-5.84,6.86
1520377200000,-5.07,7.49
1520380800000,-4.84,6.98
1520384400000,-5.13,6.43
1520388000000,-4.55,6.27
1520391600000,-4.63,6.47
1520395200000,-4.54,5.87
1520398800000,-5.04,6.30
1520402400000,-5.26,6.89
1520406000000,-4.96,6.77
1520409600000,-5.32,6.05
1520413200000,-4.53,7.03
1520416800000,-4.92,7.13
1520420400000,-4.86,7.22
1520424000000,-4.63,6.37
1520456400000,-5.40,5.60
1520460000000,-5.01,6.42
1520463600000,-5.28,6.08
1520467200000,-5.09,6.21
1520470800000,-4.83,6.32
1520474400000,-4.55,6.64
1520478000000,-5.16,6.75
1520481600000,-5.52,5.33
1520485200000,-5.33,6.40
1520488800000,-4.61,5.84
1520492400000,-5.22,6.35
1520496000000,-5.03,6.75
1520499600000,-5.09,7.00
1520503200000,-5.07,5.62
1520506800000,-5.83,7.08
1520510400000,-5.63,6.20
1520528400000,-4.81,6.79
1520532000000,-4.82,5.85
1520535600000,-5.12,5.96
1520539200000,-4.85,6.46
1520542800000,-5.36,6.16
1520546400000,-5.42,6.69
1520550000000,-4.84,6.12
1520553600000,-4.97,6.49
1520557200000,-5.08,6.84
1520560800000,-4.55,6.76
1520564400000,-5.15,5.63
1520568000000,-4.90,5.43
1520571600000,-4.89,5.56
1520575200000,-4.98,5.01
1520578800000,-5.17,4.84
1520582400000,-4.84,5.22
1520586000000,-4.92,5.45
1520589600000,-5.13,6.38
1520593200000,-4.91,4.94
1520596800000,-5.30,5.77
1520600400000,-5.11,6.29
1520604000000,-5.12,5.82
1520607600000,-4.57,5.58
1520611200000,-5.51,6.42
1520614800000,-4.94,6.32
1520618400000,-5.71,6.07
1520622000000,-4.88,5.79
1520625600000,-5.50,7.42
1520629200000,-5.06,7.10
1520632800000,-5.37,7.48
1520636400000,-5.45,6.08
1520640000000,-4.96,5.14
1520643600000,-5.87,7.04
1520647200000,-4.49,6.65
1520650800000,-4.96,6.23
1520654400000,-5.45,6.17
1520658000000,-4.79,5.99
1520661600000,-5.01,5.99
1520665200000,-5.26,6.87
1520668800000,-4.85,5.76
1520672400000,-5.52,7.00
1520676000000,-4.33,7.16
1520679600000,-5.04,6.23
1520683200000,-5.38,7.63
1520686800000,-4.93,6.52
1520690400000,-4.54,7.56
1520694000000,-4.97,7.52
1520697600000,-5.05,7.02
1520701200000,-5.47,6.60
1520704800000,-4.75,5.64
1520708400000,-4.65,6.48
1520712000000,-5.26,6.77
1520715600000,-4.83,7.66
1520719200000,-4.31,6.96
1520722800000,-4.89,7.34
1520726400000,-4.39,6.31
1520730000000,-4.58,5.77
1520733600000,-4.81,5.86
1520737200000,-4.60,6.54
1520740800000,-4.95,6.84
1520744400000,-4.83,6.20
1520748000000,-5.03,6.16
1520751600000,-5.02,6.42
1520755200000,-4.78,6.49
1520758800000,-5.03,4.99
1520762400000,-4.93,6.19
1520766000000,-4.68,6.28
1520769600000,-4.98,6.05
1520773200000,-5.09,5.60
1520776800000,-4.52,5.94
1520780400000,-4.69,6.20
1520784000000,-5.00,5.90
1520787600000,-4.30,4.58
1520791200000,-4.97,5.37
1520794800000,-4.83,6.53
1520798400000,-4.92,5.92
1520802000000,-4.90,6.59
1520805600000,-5.18,6.06
1520809200000,-4.86,6.85
1520812800000,-5.78,6.00
1520816400000,-5.20,5.86
1520820000000,-4.46,5.16
1520823600000,-5.29,7.13
1520827200000,-4.94,6.29
1520830800000,-4.93,5.32
1520834400000,-4.82,5.89
1520838000000,-4.83,6.50
1520841600000,-4.96,5.93
1520845200000,-5.04,6.55
1520848800000,-5.24,6.08
1520852400000,-5.38,6.17
1520856000000,-4.85,6.65
1520859600000,-4.63,6.38
1520863200000,-5.02,5.78
1520866800000,-4.14,5.41
1520870400000,-4.62,5.36
1520874000000,-5.24,4.83
1520877600000,-4.81,5.89
1520881200000,-4.86,5.79
1520884800000,-5.09,7.07
1520888400000,-5.15,7.63
1520892000000,-5.80,6.85
1520895600000,-4.79,6.72
1520899200000,-5.32,6.72
1520902800000,-5.70,5.68
1520906400000,-5.14,5.92
1520910000000,-5.63,6.54
1520913600000,-5.09,5.35
1520917200000,-5.00,5.47
1520920800000,-5.72,5.89
1520924400000,-4.71,6.90
1520928000000,-5.27,6.33
1520931600000,-5.07,6.36
1520935200000,-5.27,6.27
1520938800000,-4.52,5.66
1520942400000,-4.65,6.24
1520946000000,-4.97,5.94
1520949600000,-5.17,5.30
1520953200000,-4.71,6.87
1520956800000,-4.93,5.91
1520960400000,-4.53,4.59
1520964000000,-5.20,5.51
1520967600000,-5.29,5.54
1520971200000,-5.13,7.15
1520974800000,-5.10,6.14
1520978400000,-4.86,6.81
1520982000000,-5.14,6.56
1520985600000,-5.47,6.80
1520989200000,-5.26,5.73
1520992800000,-5.12,5.52
1520996400000,-4.99,5.55
1521000000000,-5.18,6.34
1521003600000,-5.08,5.74
1521007200000,-4.85,6.07
1521010800000,-5.45,6.26
1521014400000,-4.82,5.27
1521018000000,-5.06,5.24
1521021600000,-5.07,4.91
1521025200000,-5.02,5.58
1521028800000,-4.75,6.78
1521032400000,-5.30,5.60
1521036000000,-5.20,5.41
1521039600000,-4.84,5.85
1521043200000,-4.98,5.55
1521046800000,-4.61,5.83
1521050400000,-5.22,5.70
1521054000000,-5.25,6.52
1521057600000,-4.89,5.65
1521061200000,-4.51,6.19
1521064800000,-5.47,6.43
1521068400000,-4.63,5.84
1521072000000,-5.42,6.71
1521075600000,-4.77,5.14
1521079200000,-4.85,5.73
1521082800000,-4.93,5.26
1521086400000,-5.09,5.95
1521090000000,-4.82,5.77
1521093600000,-5.20,5.08
1521097200000,-4.56,5.57
1521100800000,-5.01,6.33
1521104400000,-4.43,6.39
1521108000000,-5.06,6.15
1521111600000,-5.54,6.05
1521115200000,-4.90,5.52
1521118800000,-4.81,4.78
1521122400000,-4.52,4.37
1521126000000,-4.36,5.03
1521129600000,-4.24,5.69
1521133200000,-4.45,5.12
1521136800000,-4.58,5.40
1521140400000,-4.72,4.53
1521144000000,-4.53,4.63
1521147600000,-5.02,4.83
1521151200000,-4.81,5.04
1521154800000,-4.81,6.14
1521158400000,-4.87,5.88
1521162000000,-5.13,5.54
1521169200000,-4.80,5.34
1521172800000,-4.71,4.47
1521176400000,-4.86,5.85
1521180000000,-4.58,5.27
1521183600000,-4.26,5.90
1521187200000,-5.11,5.08
1521190800000,-4.44,5.65
1521194400000,-4.98,6.03
1521198000000,-4.22,4.90
1521201600000,-5.15,5.44
1521205200000,-4.22,4.44
1521208800000,-4.48,4.74
1521212400000,-4.59,6.01
1521216000000,-4.42,4.60
1521219600000,-4.86,4.73
1521223200000,-4.22,5.36
1521226800000,-5.04,5.50
1521230400000,-4.85,5.75
1521234000000,-4.65,5.37
1521237600000,-4.19,5.53
1521244800000,,6.44
1521248400000,-4.85,
1521259200000,-4.11,4.35
1521262800000,-4.79,5.63
1521266400000,-4.36,5.22
1521270000000,-4.47,4.62
1521273600000,-4.80,5.00
1521277200000,-4.95,4.72
1521280800000,-4.40,4.27
1521284400000,-4.45,4.04
1521288000000,-4.63,5.20
1521291600000,-4.07,5.48
1521295200000,-4.49,5.41
1521298800000,-4.49,4.73
1521302400000,-4.28,4.45
1521306000000,-4.51,4.79
1521309600000,-4.59,4.85
1521313200000,-4.82,5.00
1521316800000,-5.16,5.69
1521320400000,-4.86,5.49
1521324000000,-4.68,5.29
1521327600000,-4.68,5.73
1521331200000,-5.12,6.12
1521334800000,-4.53,6.31
1521338400000,-4.10,5.88
1521342000000,-4.65,4.80
1521345600000,-5.06,3.41
1521349200000,-4.33,4.53
1521352800000,-4.47,4.99
1521356400000,-4.43,6.20
1521360000000,-4.65,5.32
1521363600000,-4.43,5.72
1521367200000,-4.94,5.82
1521370800000,-4.18,4.58
1521374400000,-4.18,5.12
1521378000000,-4.24,5.65
1521381600000,-4.39,4.42
1521385200000,-4.46,6.21
1521388800000,-3.96,6.62
1521392400000,-4.85,6.27
1521396000000,-4.80,5.70
1521399600000,-4.37,5.21
1521403200000,-4.75,5.64
1521406800000,-4.89,5.37
1521410400000,-3.98,5.91
1521414000000,-4.76,6.27
1521417600000,-4.16,6.75
1521421200000,-4.49,5.92
1521424800000,-4.06,6.13
1521428400000,-4.94,6.57
1521432000000,-4.28,5.60
1521435600000,-4.38,4.85
1521439200000,-4.51,5.77
1521442800000,-4.81,6.68
1521446400000,-4.70,6.17
1521450000000,-4.15,6.19
1521453600000,-4.12,5.00
1521457200000,-4.09,5.37
1521460800000,-4.30,6.03
1521464400000,-4.30,7.42
1521468000000,-4.59,7.22
1521471600000,-4.57,6.51
1521475200000,-4.28,7.10
1521478800000,-4.72,6.45
1521482400000,-4.83,4.51
1521486000000,-4.91,5.79
1521489600000,-4.63,6.33
1521493200000,-4.47,5.64
1521496800000,-4.23,6.05
1521500400000,-4.18,7.13
1521504000000,-4.02,6.99
1521507600000,-4.54,5.91
1521511200000,-4.71,6.66
1521514800000,-4.63,5.50
1521518400000,-4.59,4.67
1521522000000,-4.21,5.62
1521525600000,-4.40,6.66
1521529200000,-4.80,6.45
1521532800000,-4.94,6.53
1521536400000,-4.25,5.91
1521540000000,-4.75,5.83
1521543600000,-4.78,6.02
1521547200000,-4.68,7.49
1521550800000,-4.97,7.54
1521554400000,-5.14,7.21
1521558000000,-4.17,6.42
1521561600000,-4.64,6.30
1521565200000,-4.44,6.15
1521568800000,-4.42,5.32
1521572400000,-4.66,5.91
1521576000000,-4.71,6.20
1521579600000,-4.62,5.47
1521583200000,-4.15,5.97
1521586800000,-4.46,5.60
1521590400000,-4.68,6.32
1521594000000,-4.26,5.54
1521597600000,-4.57,5.83
1521601200000,-5.47,6.26
1521604800000,-4.34,6.39
1521608400000,-4.44,6.36
1521612000000,-4.81,5.86
1521615600000,-4.55,6.15
1521619200000,-4.15,5.80
1521622800000,-4.17,6.58
1521626400000,-4.63,5.89
1521630000000,-4.32,6.14
1521633600000,-4.20,6.33
1521637200000,-4.31,6.94
1521640800000,-4.40,7.51
1521648000000,,5.70
1521651600000,-3.95,7.90
1521655200000,-4.66,6.74
1521658800000,-4.80,5.42
1521662400000,-5.11,5.75
1521666000000,-4.54,6.12
1521669600000,-5.15,6.93
1521673200000,-4.93,6.83
1521676800000,-5.20,5.42
1521680400000,-4.92,5.84
1521684000000,-3.71,6.66
1521687600000,-5.06,7.22
1521691200000,-4.35,7.67
1521694800000,-4.34,8.25
1521698400000,-4.99,7.62
1521702000000,-4.29,8.15
1521705600000,-5.04,7.25
1521709200000,-4.50,6.05
1521712800000,-3.84,6.95
1521716400000,-3.86,7.20
1521720000000,-3.92,7.34
1521723600000,-5.00,6.30
1521727200000,-4.46,7.20
1521730800000,-4.59,7.38
1521734400000,-4.40,6.69
1521738000000,-4.71,7.66
1521741600000,-4.59,8.08
1521745200000,-4.52,7.13
1521748800000,-4.48,5.69
1521752400000,-5.34,7.29
1521756000000,-4.61,6.89
1521759600000,-4.04,6.47
1521763200000,-4.54,6.99
1521766800000,-3.94,6.48
1521770400000,-4.57,6.54
1521774000000,-4.30,6.25
1521777600000,-4.50,6.49
1521781200000,-4.45,7.02
1521784800000,-4.78,7.07
1521788400000,-3.36,7.13
1521792000000,-4.53,6.69
1521795600000,-4.90,6.94
1521799200000,-4.21,6.16
1521802800000,-4.69,6.37
1521806400000,-4.48,6.88
1521810000000,-4.34,7.22
1521813600000,-4.70,6.84
1521817200000,-4.32,6.41
1521820800000,-4.26,6.92
1521824400000,-4.69,7.44
1521828000000,-5.15,6.80
1521831600000,-4.53,7.75
1521835200000,-4.38,7.04
1521838800000,-4.39,7.11
1521842400000,-4.33,6.02
1521846000000,-4.52,7.63
1521849600000,-4.59,7.08
1521853200000,-4.70,5.56
1521856800000,-4.79,7.06
1521860400000,-4.32,6.01
1521864000000,-4.04,5.77
1521867600000,-4.50,6.39
1521871200000,-4.31,7.85
1521874800000,-3.78,7.95
1521878400000,-4.58,8.10
1521882000000,-4.36,7.95
1521885600000,-4.64,7.52
1521889200000,-4.17,7.72
1521892800000,-3.68,8.01
1521896400000,-4.33,8.05
1521900000000,-4.52,6.75
1521903600000,-4.46,7.41
1521907200000,-4.73,7.87
1521910800000,-4.34,6.89
1521914400000,-4.13,7.65
1521918000000,-4.45,7.04
1521921600000,-4.76,7.12
1521925200000,-4.48,7.36
1521928800000,-4.32,8.17
1521932400000,-4.05,7.26
1521936000000,-4.39,7.69
1521939600000,-4.26,7.95
1521943200000,-4.08,7.96
1521946800000,-4.09,5.97
1521950400000,-4.76,6.40
1521954000000,-4.22,6.43
1521957600000,-4.04,7.10
1521961200000,-3.88,7.72
1521964800000,-3.89,6.91
1521968400000,-4.10,7.01
1521972000000,-4.02,7.27
1521975600000,-3.68,6.77
1521979200000,-4.20,7.56
1521982800000,-4.69,7.36
1521986400000,-4.67,6.96
1521990000000,-3.93,6.38
1521993600000,-3.96,6.71
1521997200000,-3.72,6.69
1522000800000,-3.44,6.19
1522004400000,-3.48,6.15
1522008000000,-3.73,6.89
1522011600000,-3.33,7.67
1522015200000,-4.36,6.76
1522018800000,-3.48,7.99
1522022400000,-3.25,7.87
1522026000000,-3.36,7.66
1522029600000,-3.23,6.15
1522033200000,-2.95,6.60
1522036800000,-2.41,6.13
1522040400000,-2.36,6.97
1522044000000,-2.40,7.01
1522047600000,-1.96,6.29
1522051200000,-2.13,7.46
1522054800000,-2.08,6.82
1522058400000,-1.35,7.46
1522062000000,-1.17,7.14
1522065600000,-2.08,6.94
1522069200000,-1.98,5.70
1522072800000,-1.81,6.41
1522076400000,-2.12,6.58
1522080000000,-1.75,6.87
1522083600000,-2.53,7.54
1522087200000,-2.84,5.36
1522090800000,-2.94,6.78
1522094400000,-2.91,7.41
1522098000000,-3.95,8.20
1522101600000,-4.56,7.33
1522105200000,-3.80,7.38
1522108800000,-4.00,7.31
1522112400000,-4.12,6.95
1522116000000,-3.51,7.44
1522119600000,-2.82,7.50
1522123200000,-3.11,6.52
1522126800000,-2.65,7.50
1522130400000,-3.01,7.54
1522134000000,-2.60,5.89
1522137600000,-1.91,6.14
1522141200000,-1.54,8.15
1522144800000,-1.81,6.90
1522148400000,-1.33,8.37
1522152000000,-0.73,7.82
1522155600000,-0.63,7.66
1522159200000,0.30,7.19
1522162800000,-0.38,6.56
1522166400000,-0.11,7.32
1522170000000,-1.14,7.04
1522173600000,-1.72,7.75
1522177200000,-2.27,6.28
1522180800000,-2.96,6.21
1522184400000,-3.17,6.31
1522188000000,-3.51,7.54
1522191600000,-3.96,8.86
1522195200000,-3.73,9.04
1522198800000,-3.99,7.43
1522202400000,-4.45,7.41
1522206000000,-3.74,7.46
1522209600000,-3.09,7.53
1522213200000,-3.43,7.46
1522216800000,-4.11,7.14
1522220400000,-3.41,6.98
1522224000000,-4.44,8.88
1522227600000,-4.25,7.46
1522231200000,-4.13,7.76
1522234800000,-4.30,9.44
1522238400000,-3.97,8.08
1522242000000,-3.32,8.58
1522245600000,-3.63,8.31
1522249200000,-4.00,8.30
1522252800000,-3.54,7.90
1522256400000,-3.85,7.86
1522260000000,-3.77,7.35
1522263600000,-4.06,7.44
1522267200000,-4.23,8.44
1522270800000,-3.89,8.43
1522274400000,-3.84,8.97
1522278000000,-4.68,9.18
1522281600000,-4.10,8.09
1522285200000,-3.78,8.24
1522288800000,-4.05,9.11
1522292400000,-3.81,8.23
1522296000000,-4.75,8.01
1522299600000,-4.09,7.64
1522303200000,-4.29,8.25
1522306800000,-3.65,7.66
1522310400000,-2.83,8.78
1522314000000,-4.46,8.15
1522317600000,-4.19,8.32
1522321200000,-3.74,8.39
1522324800000,-3.67,8.72
1522328400000,-3.63,8.85
1522332000000,-3.81,8.95
1522335600000,-1.45,7.67
1522339200000,-2.36,8.69
1522342800000,-2.63,7.74
1522346400000,-2.78,9.46
1522350000000,-3.59,10.12
1522353600000,-3.88,8.12
1522357200000,-4.17,8.06
1522360800000,-3.40,9.16
1522364400000,-3.28,8.41
1522368000000,-3.08,8.49
1522371600000,-4.04,8.55
1522375200000,-3.70,9.21
1522378800000,-4.08,8.50
1522382400000,-3.77,8.06
1522386000000,-3.38,8.78
1522389600000,-4.18,9.24
1522393200000,-4.11,7.44
1522396800000,-3.97,8.99
1522400400000,-3.61,9.05
1522404000000,-3.65,8.47
1522407600000,-3.64,9.24
1522411200000,-3.55,9.60
1522414800000,-4.09,9.25
1522418400000,-4.00,8.87
1522422000000,-4.19,8.03
1522425600000,-3.87,8.03
1522429200000,-3.96,8.97
1522432800000,-3.67,7.94
1522436400000,-3.62,7.86
1522440000000,-4.12,7.80
1522443600000,-3.79,7.93
1522447200000,-3.91,7.18
1522450800000,-4.11,8.28
1522454400000,-3.99,8.40
1522458000000,-3.62,9.29
1522461600000,-3.66,8.65
1522465200000,-3.84,9.42
1522468800000,-3.36,7.89
1522472400000,-2.78,7.85
1522476000000,-2.73,8.17
1522479600000,-2.69,8.52
1522483200000,-2.99,7.90
1522486800000,-3.41,8.95
1522490400000,-2.84,9.19
1522494000000,-4.32,9.45
1522497600000,-4.17,9.52
1522501200000,-4.10,9.08
1522504800000,-4.34,10.03
1522508400000,-2.96,8.86
1522512000000,-3.11,8.97
1522515600000,-3.28,7.77
1522519200000,-3.47,9.00
1522522800000,-4.19,9.64
1522526400000,-4.35,9.11
1522530000000,-3.56,9.03
1522533600000,-3.16,9.62
1522537200000,-3.88,7.83
1522540800000,-4.01,8.57
1522544400000,-3.00,9.22
1522548000000,-2.34,9.99
1522551600000,-3.83,9.26
1522555200000,-3.95,8.67
1522558800000,-3.79,9.18
1522562400000,-3.40,8.95
1522566000000,-2.02,8.19
1522569600000,-2.70,8.94
1522573200000,-1.81,8.40
1522576800000,-2.96,8.01
1522580400000,-2.99,7.55
1522584000000,-3.16,8.63
1522587600000,-2.83,8.94
1522591200000,-3.04,9.80
1522594800000,-3.74,9.40
1522598400000,-3.13,8.10
1522602000000,-2.69,8.64
1522605600000,-2.35,9.28
1522609200000,-2.12,8.22
1522612800000,-2.80,8.18
1522616400000,-3.06,8.50
1522620000000,-3.60,8.52
1522623600000,-3.17,8.74
1522627200000,-3.67,8.88
1522630800000,-4.81,8.51
1522634400000,-4.63,9.84
1522638000000,-3.90,10.01
1522641600000,-4.21,10.44
1522645200000,-4.37,8.71
1522648800000,-2.07,8.42
1522652400000,-0.61,8.83
1522656000000,0.54,8.96
1522659600000,0.55,8.96
1522663200000,0.69,8.00
1522666800000,0.42,8.08
1522670400000,1.82,9.89
1522674000000,1.38,9.57
1522677600000,1.52,8.43
1522681200000,1.79,9.56
1522684800000,1.31,9.85
1522688400000,0.57,8.12
1522692000000,0.49,9.38
1522695600000,0.39,10.34
1522699200000,-0.48,8.29
1522702800000,-1.65,9.08
1522706400000,-2.37,8.73
1522710000000,-1.89,8.93
1522713600000,-3.62,7.65
1522717200000,-2.66,8.11
1522720800000,-3.08,8.66
1522724400000,-3.58,9.01
1522728000000,-3.70,8.77
1522731600000,-3.69,10.00
1522735200000,-1.67,8.34
1522738800000,-3.63,8.94
1522742400000,-2.85,7.84
1522746000000,-3.22,7.91
1522749600000,-2.84,8.13
1522753200000,-3.82,7.75
1522756800000,-3.51,7.85
1522760400000,-3.70,8.81
1522764000000,-3.46,8.07
1522767600000,-3.63,9.67
1522771200000,-3.06,9.01
1522774800000,-4.08,8.52
1522778400000,-3.53,8.69
1522782000000,-4.03,9.04
1522785600000,-2.95,8.54
1522789200000,-2.55,9.01
1522792800000,-2.92,9.43
1522796400000,-3.02,9.62
1522800000000,-2.88,8.22
1522803600000,-3.09,7.37
1522807200000,-3.52,7.62
1522810800000,-2.94,8.91
1522814400000,-2.86,8.33
1522818000000,-2.95,7.49
1522821600000,-3.43,8.15
1522825200000,-3.84,8.73
1522828800000,-3.84,8.90
1522832400000,-3.41,8.03
1522836000000,-3.81,5.88
1522839600000,-3.72,6.65
1522843200000,-3.90,7.30
1522846800000,-3.63,7.05
1522850400000,-3.73,7.88
1522854000000,-4.06,7.60
1522857600000,-3.92,8.23
1522861200000,-4.14,7.62
1522864800000,-3.86,7.86
1522868400000,-3.89,7.39
1522872000000,-3.51,6.32
1522875600000,-3.64,5.62
1522879200000,-3.77,6.43
1522882800000,-3.14,5.95
1522886400000,-3.32,5.81
1522890000000,-2.75,4.45
1522893600000,-3.13,8.56
1522897200000,-1.69,9.15
1522900800000,-2.97,8.42
1522904400000,-2.79,9.15
1522908000000,-3.78,8.58
1522911600000,-3.40,7.05
1522915200000,-3.84,6.31
1522918800000,-2.73,7.63
1522922400000,-3.24,6.83
1522926000000,-3.45,6.20
1522929600000,-3.21,6.52
1522933200000,-3.28,6.68
1522936800000,-4.10,6.42
1522940400000,-3.91,8.37
1522944000000,-3.16,7.18
1522947600000,-4.35,7.74
1522951200000,-3.52,8.37
1522954800000,-6.51,6.97
1522958400000,-5.00,7.67
1522962000000,-5.85,7.47
1522965600000,-5.93,5.72
1522969200000,-5.44,5.42
1522972800000,-4.32,5.02
1522976400000,-4.15,6.33
1522980000000,-3.12,6.16
1522983600000,-3.34,6.76
1522987200000,-3.52,6.42
1522990800000,-3.67,6.17
1522994400000,-2.72,6.17
1522998000000,-3.74,6.32
1523001600000,-3.17,5.88
1523005200000,-3.55,6.68
1523008800000,-3.39,7.11
1523012400000,-3.28,5.91
1523016000000,-3.22,6.67
1523019600000,-3.82,5.92
1523023200000,-3.42,5.72
1523026800000,-4.68,5.77
1523030400000,-3.95,5.19
1523034000000,-4.12,6.88
1523037600000,-4.08,4.80
1523041200000,-4.15,6.20
1523044800000,-3.95,7.45
1523048400000,-4.48,6.33
1523052000000,-4.32,7.23
1523055600000,-4.77,5.38
1523059200000,-4.86,5.69
1523062800000,-3.87,5.58
1523066400000,-4.21,4.77
1523070000000,-3.82,5.72
1523073600000,-4.26,5.10
1523077200000,-4.09,6.55
1523080800000,-3.20,8.05
1523084400000,-3.90,6.93
1523088000000,-4.73,7.70
1523091600000,-4.57,6.27
1523095200000,-4.38,6.66
1523098800000,-4.47,6.73
1523102400000,-4.66,7.23
1523106000000,-4.95,8.19
1523109600000,-4.61,7.02
1523113200000,-5.86,4.54
1523116800000,-4.68,6.31
1523120400000,-4.87,6.08
1523124000000,-4.67,6.22
1523127600000,-5.21,6.77
1523131200000,-6.25,7.33
1523134800000,-6.37,5.55
1523138400000,-5.66,7.23
1523142000000,-5.11,7.12
1523145600000,-7.06,7.89
1523149200000,-4.00,5.47
1523152800000,-4.97,5.46
1523156400000,-3.34,6.56
1523160000000,-4.47,5.31
1523163600000,-3.15,7.15
1523167200000,-4.08,6.23
1523170800000,-4.88,6.41
1523174400000,-4.59,6.65
1523178000000,-4.61,6.15
1523181600000,-4.57,6.88
1523185200000,-4.16,7.41
1523188800000,-4.68,6.59
1523192400000,-3.66,7.52
1523196000000,-4.25,7.83
1523199600000,-4.83,9.25
1523203200000,-4.78,6.99
1523206800000,-4.28,7.21
1523210400000,-4.47,6.97
1523214000000,-4.17,6.92
1523217600000,-4.67,7.49
1523221200000,-4.94,7.93
1523224800000,-4.19,7.49
1523228400000,-4.40,6.85
1523232000000,-4.01,7.04
1523235600000,-4.36,6.73
1523239200000,-3.99,6.42
1523242800000,-3.88,5.16
1523246400000,-4.50,7.34
1523250000000,-4.15,6.00
1523253600000,-3.86,6.37
1523257200000,-3.78,7.19
1523260800000,-4.46,7.44
1523264400000,-4.05,7.92
1523268000000,-4.17,7.97
1523271600000,-4.43,8.22
1523275200000,-4.66,6.61
1523278800000,-4.24,7.14
1523282400000,-3.84,6.22
1523286000000,-4.54,7.59
1523289600000,-4.44,6.54
1523293200000,-3.99,7.07
1523296800000,-4.88,7.46
1523300400000,-3.89,7.96
1523304000000,-4.87,7.67
1523307600000,-4.00,7.56
1523311200000,-4.69,7.49
1523314800000,-4.41,8.16
1523318400000,-5.39,8.62
1523322000000,-5.06,7.30
1523325600000,-4.99,7.56
1523329200000,-4.36,6.82
1523332800000,-4.82,6.50
1523336400000,-4.48,7.49
1523340000000,-3.93,6.58
1523343600000,-4.30,8.01
1523347200000,-4.61,7.73
1523350800000,-4.79,7.58
1523354400000,-5.00,7.90
1523358000000,-4.58,7.50
1523361600000,-3.97,7.45
1523365200000,-4.57,6.88
1523368800000,-3.90,6.23
1523372400000,-4.62,7.51
1523376000000,,7.08
1523397600000,,8.15
1523401200000,-3.45,7.82
1523404800000,-3.05,8.00
1523408400000,-4.04,7.24
1523412000000,-4.15,7.22
1523415600000,-4.34,6.48
1523419200000,-4.78,6.53
1523422800000,-4.89,6.15
1523426400000,-4.70,6.20
1523430000000,-4.45,6.85
1523433600000,-4.69,9.35
1523437200000,-4.48,6.86
1523440800000,-4.64,8.78
1523444400000,-4.46,8.48
1523448000000,-4.61,7.88
1523451600000,-4.62,8.15
1523455200000,-4.70,6.45
1523458800000,-3.91,7.52
1523462400000,-4.20,7.44
1523466000000,-4.19,7.50
1523469600000,-5.05,7.63
1523473200000,-4.07,7.64
1523476800000,-4.21,7.01
1523480400000,-4.63,7.25
1523484000000,-4.64,7.92
1523487600000,-4.30,8.75
1523491200000,-4.11,7.51
1523494800000,-3.98,8.83
1523498400000,-5.09,7.35
1523502000000,-4.16,7.40
1523505600000,-5.10,7.29
1523509200000,-4.00,8.23
1523512800000,-4.64,7.41
1523516400000,-3.78,9.58
1523520000000,-4.64,9.10
1523523600000,-4.00,8.06
1523527200000,-4.24,8.86
1523530800000,-4.27,9.17
1523534400000,-4.25,9.61
1523538000000,-4.56,7.97
1523541600000,-3.77,8.95
1523545200000,-4.58,8.23
1523548800000,-4.13,6.60
1523552400000,-4.18,7.60
1523556000000,-4.33,7.04
1523559600000,-4.15,8.13
1523563200000,-3.91,7.84